| time (UTC) | temp F | wind direction | speed knots | gust knots | rain 1hr in | rain 24hr in | rain mn in | humidity % | barometer mb |
| 20260904171328 | 90 | 0 | 0.0 | 5.2 | 0.00 | 0.00 | 0.00 | 60 | 1020.9 |
| 20260904171242 | 90 | 0 | 0.0 | 5.2 | 0.00 | 0.00 | 0.00 | 60 | 1020.9 |
| 20260904170741 | 90 | 280 | 1.7 | 5.2 | 0.00 | 0.00 | 0.00 | 61 | 1021.0 |
| 20260904170422 | 91 | 280 | 0.9 | 3.5 | 0.00 | 0.00 | 0.00 | 60 | 1020.9 |
| 20260904170241 | 91 | 280 | 0.9 | 3.5 | 0.00 | 0.00 | 0.00 | 60 | 1020.9 |
| 20260904165741 | 90 | 0 | 0.0 | 3.5 | 0.00 | 0.00 | 0.00 | 60 | 1020.9 |
| 20260904165241 | 90 | 0 | 0.0 | 6.1 | 0.00 | 0.00 | 0.00 | 60 | 1020.9 |
| 20260904164741 | 90 | 0 | 0.0 | 6.1 | 0.00 | 0.00 | 0.00 | 61 | 1021.0 |
| 20260904164241 | 90 | 0 | 0.0 | 2.6 | 0.00 | 0.00 | 0.00 | 62 | 1021.0 |
| 20260904163742 | 90 | 0 | 0.0 | 3.5 | 0.00 | 0.00 | 0.00 | 61 | 1021.1 |
| 20260904163241 | 90 | 0 | 0.0 | 3.5 | 0.00 | 0.00 | 0.00 | 61 | 1021.2 |
| 20260904162741 | 90 | 0 | 0.0 | 5.2 | 0.00 | 0.00 | 0.00 | 60 | 1021.3 |
| 20260904162242 | 89 | 280 | 0.9 | 5.2 | 0.00 | 0.00 | 0.00 | 63 | 1021.3 |
| 20260904161741 | 89 | 0 | 0.0 | 7.0 | 0.00 | 0.00 | 0.00 | 63 | 1021.5 |
| 20260904161241 | 89 | 280 | 0.9 | 7.0 | 0.00 | 0.00 | 0.00 | 61 | 1021.5 |
| 20260904160741 | 88 | 0 | 0.0 | 3.5 | 0.00 | 0.00 | 0.00 | 64 | 1021.5 |
| 20260904160400 | 88 | 0 | 0.0 | 6.1 | 0.00 | 0.00 | 0.00 | 65 | 1021.5 |
| 20260904160241 | 88 | 0 | 0.0 | 6.1 | 0.00 | 0.00 | 0.00 | 65 | 1021.5 |
| 20260904155741 | 87 | 280 | 0.9 | 6.1 | 0.00 | 0.00 | 0.00 | 63 | 1021.5 |
| 20260904155241 | 87 | 0 | 0.0 | 6.1 | 0.00 | 0.00 | 0.00 | 65 | 1021.5 |
| 20260904154742 | 87 | 0 | 0.0 | 3.5 | 0.00 | 0.00 | 0.00 | 65 | 1021.5 |
| 20260904154241 | 87 | 0 | 0.0 | 5.2 | 0.00 | 0.00 | 0.00 | 65 | 1021.5 |
| 20260904153741 | 87 | 280 | 1.7 | 5.2 | 0.00 | 0.00 | 0.00 | 65 | 1021.6 |
| 20260904153241 | 87 | 0 | 0.0 | 6.1 | 0.00 | 0.00 | 0.00 | 64 | 1021.6 |
| 20260904152741 | 87 | 0 | 0.0 | 6.1 | 0.00 | 0.00 | 0.00 | 64 | 1021.5 |
| 20260904152241 | 87 | 280 | 0.9 | 5.2 | 0.00 | 0.00 | 0.00 | 64 | 1021.5 |
| 20260904151741 | 87 | 0 | 0.0 | 1.7 | 0.00 | 0.00 | 0.00 | 65 | 1021.5 |
| 20260904151241 | 87 | 0 | 0.0 | 2.6 | 0.00 | 0.00 | 0.00 | 64 | 1021.6 |
| 20260904150741 | 86 | 0 | 0.0 | 2.6 | 0.00 | 0.00 | 0.00 | 65 | 1021.5 |
| 20260904150241 | 86 | 0 | 0.0 | 2.6 | 0.00 | 0.00 | 0.00 | 63 | 1021.6 |
| 20260904145727 | 87 | 0 | 0.0 | 1.7 | 0.00 | 0.00 | 0.00 | 63 | 1021.6 |
| 20260904144906 | 86 | 0 | 0.0 | 5.2 | 0.00 | 0.00 | 0.00 | 66 | 1021.6 |
| 20260904144406 | 86 | 0 | 0.0 | 5.2 | 0.00 | 0.00 | 0.00 | 65 | 1021.6 |
| 20260904143906 | 86 | 0 | 0.0 | 2.6 | 0.00 | 0.00 | 0.00 | 65 | 1021.6 |
| 20260904143405 | 85 | 0 | 0.0 | 5.2 | 0.00 | 0.00 | 0.00 | 65 | 1021.7 |
| 20260904142905 | 85 | 0 | 0.0 | 5.2 | 0.00 | 0.00 | 0.00 | 65 | 1021.6 |
| 20260904142405 | 86 | 0 | 0.0 | 1.7 | 0.00 | 0.00 | 0.00 | 65 | 1021.6 |
| 20260904141604 | 85 | 0 | 0.0 | 1.7 | 0.00 | 0.00 | 0.00 | 65 | 1021.6 |
| 20260904141104 | 85 | 0 | 0.0 | 0.0 | 0.00 | 0.00 | 0.00 | 66 | 1021.6 |
| 20260904140604 | 85 | 0 | 0.0 | 0.0 | 0.00 | 0.00 | 0.00 | 66 | 1021.6 |
| 20260904140231 | 84 | 0 | 0.0 | 0.0 | 0.00 | 0.00 | 0.00 | 67 | 1021.6 |
| 20260904140104 | 84 | 0 | 0.0 | 0.0 | 0.00 | 0.00 | 0.00 | 67 | 1021.6 |
| 20260904135604 | 84 | 0 | 0.0 | 0.0 | 0.00 | 0.00 | 0.00 | 68 | 1021.5 |
| 20260904135437 | 84 | 0 | 0.0 | 1.7 | 0.00 | 0.00 | 0.00 | 67 | 1021.4 |
| 20260904135107 | 84 | 0 | 0.0 | 0.0 | 0.00 | 0.00 | 0.00 | 68 | 1021.5 |
| 20260904134608 | 84 | 0 | 0.0 | 1.7 | 0.00 | 0.00 | 0.00 | 67 | 1021.4 |
| 20260904134601 | 84 | 0 | 0.0 | 1.7 | 0.00 | 0.00 | 0.00 | 68 | 1021.5 |
| 20260904134104 | 84 | 0 | 0.0 | 1.7 | 0.00 | 0.00 | 0.00 | 68 | 1021.5 |
| 20260904133604 | 83 | 0 | 0.0 | 0.9 | 0.00 | 0.00 | 0.00 | 68 | 1021.5 |
| 20260904133252 | 83 | 0 | 0.0 | 1.7 | 0.00 | 0.00 | 0.00 | 69 | 1021.4 |
| 20260904133106 | 83 | 0 | 0.0 | 1.7 | 0.00 | 0.00 | 0.00 | 68 | 1021.5 |
| 20260904132606 | 83 | 0 | 0.0 | 1.7 | 0.00 | 0.00 | 0.00 | 69 | 1021.4 |
| 20260904132449 | 82 | 0 | 0.0 | 1.7 | 0.00 | 0.00 | 0.00 | 69 | 1021.5 |
| 20260904132106 | 83 | 0 | 0.0 | 0.0 | 0.00 | 0.00 | 0.00 | 69 | 1021.5 |
| 20260904131604 | 82 | 0 | 0.0 | 1.7 | 0.00 | 0.00 | 0.00 | 69 | 1021.5 |
| 20260904131104 | 82 | 0 | 0.0 | 1.7 | 0.00 | 0.00 | 0.00 | 69 | 1021.6 |
| 20260904130604 | 82 | 0 | 0.0 | 0.0 | 0.00 | 0.00 | 0.00 | 69 | 1021.6 |
| 20260904130105 | 82 | 0 | 0.0 | 2.6 | 0.00 | 0.00 | 0.00 | 70 | 1021.6 |
| 20260904125604 | 82 | 0 | 0.0 | 2.6 | 0.00 | 0.00 | 0.00 | 70 | 1021.5 |
| 20260904125104 | 81 | 0 | 0.0 | 2.6 | 0.00 | 0.00 | 0.00 | 70 | 1021.6 |
| 20260904124604 | 81 | 0 | 0.0 | 2.6 | 0.00 | 0.00 | 0.00 | 71 | 1021.6 |
| 20260904124104 | 81 | 0 | 0.0 | 0.0 | 0.00 | 0.00 | 0.00 | 71 | 1021.5 |
| 20260904123604 | 80 | 0 | 0.0 | 0.0 | 0.00 | 0.00 | 0.00 | 72 | 1021.5 |
| 20260904123106 | 80 | 0 | 0.0 | 0.0 | 0.00 | 0.00 | 0.00 | 73 | 1021.5 |
| 20260904122604 | 80 | 0 | 0.0 | 0.0 | 0.00 | 0.00 | 0.00 | 74 | 1021.5 |
| 20260904122106 | 79 | 0 | 0.0 | 0.0 | 0.00 | 0.00 | 0.00 | 75 | 1021.4 |
| 20260904121459 | 79 | 0 | 0.0 | 3.5 | 0.00 | 0.00 | 0.00 | 76 | 1021.4 |
| 20260904120958 | 79 | 0 | 0.0 | 3.5 | 0.00 | 0.00 | 0.00 | 76 | 1021.3 |
| 20260904120459 | 78 | 0 | 0.0 | 5.2 | 0.00 | 0.00 | 0.00 | 77 | 1021.3 |
| 20260904115959 | 78 | 0 | 0.0 | 5.2 | 0.00 | 0.00 | 0.00 | 77 | 1021.3 |
| 20260904115500 | 78 | 0 | 0.0 | 3.5 | 0.00 | 0.00 | 0.00 | 77 | 1021.3 |
| 20260904115003 | 78 | 0 | 0.0 | 1.7 | 0.00 | 0.00 | 0.00 | 78 | 1021.3 |
| 20260904114457 | 78 | 0 | 0.0 | 3.5 | 0.00 | 0.00 | 0.00 | 78 | 1021.2 |
| 20260904113958 | 78 | 0 | 0.0 | 3.5 | 0.00 | 0.00 | 0.00 | 78 | 1021.2 |
| 20260904113500 | 77 | 0 | 0.0 | 3.5 | 0.00 | 0.00 | 0.00 | 78 | 1021.1 |
| 20260904112957 | 77 | 0 | 0.0 | 5.2 | 0.00 | 0.00 | 0.00 | 79 | 1021.1 |
| 20260904112457 | 77 | 280 | 0.9 | 6.1 | 0.00 | 0.00 | 0.00 | 79 | 1021.0 |
| 20260904111957 | 77 | 280 | 0.9 | 7.0 | 0.00 | 0.00 | 0.00 | 80 | 1021.0 |
| 20260904111458 | 77 | 280 | 0.9 | 7.0 | 0.00 | 0.00 | 0.00 | 80 | 1021.0 |
| 20260904111000 | 78 | 280 | 2.6 | 6.1 | 0.00 | 0.00 | 0.00 | 79 | 1021.0 |
| 20260904110457 | 78 | 280 | 1.7 | 5.2 | 0.00 | 0.00 | 0.00 | 78 | 1021.0 |
| 20260904110204 | 78 | 0 | 0.0 | 3.5 | 0.00 | 0.00 | 0.00 | 76 | 1020.9 |
| 20260904105958 | 78 | 0 | 0.0 | 3.5 | 0.00 | 0.00 | 0.00 | 76 | 1020.9 |
| 20260904105459 | 78 | 0 | 0.0 | 1.7 | 0.00 | 0.00 | 0.00 | 76 | 1020.8 |
| 20260904104958 | 78 | 0 | 0.0 | 2.6 | 0.00 | 0.00 | 0.00 | 77 | 1020.7 |
| 20260904104458 | 78 | 0 | 0.0 | 2.6 | 0.00 | 0.00 | 0.00 | 78 | 1020.7 |
| 20260904103958 | 78 | 0 | 0.0 | 1.7 | 0.00 | 0.00 | 0.00 | 79 | 1020.6 |
| 20260904103458 | 78 | 0 | 0.0 | 6.1 | 0.00 | 0.00 | 0.00 | 80 | 1020.6 |
| 20260904102958 | 78 | 0 | 0.0 | 6.1 | 0.00 | 0.00 | 0.00 | 80 | 1020.6 |
| 20260904102458 | 78 | 0 | 0.0 | 3.5 | 0.00 | 0.00 | 0.00 | 81 | 1020.6 |
| 20260904101958 | 78 | 0 | 0.0 | 3.5 | 0.00 | 0.00 | 0.00 | 81 | 1020.5 |
| 20260904101107 | 77 | 0 | 0.0 | 5.2 | 0.00 | 0.00 | 0.00 | 82 | 1020.4 |
| 20260904100611 | 77 | 0 | 0.0 | 3.5 | 0.00 | 0.00 | 0.00 | 82 | 1020.5 |
| 20260904100046 | 77 | 0 | 0.0 | 5.2 | 0.00 | 0.00 | 0.00 | 82 | 1020.5 |
| 20260904095509 | 78 | 0 | 0.0 | 2.6 | 0.00 | 0.00 | 0.00 | 82 | 1020.6 |
| 20260904094941 | 77 | 0 | 0.0 | 1.7 | 0.00 | 0.00 | 0.00 | 80 | 1020.6 |
| 20260904094346 | 77 | 0 | 0.0 | 2.6 | 0.00 | 0.00 | 0.00 | 82 | 1020.6 |
| 20260904093445 | 78 | 0 | 0.0 | 7.0 | 0.00 | 0.00 | 0.00 | 82 | 1020.6 |
| 20260904092945 | 78 | 0 | 0.0 | 6.1 | 0.00 | 0.00 | 0.00 | 81 | 1020.5 |
| 20260904092445 | 78 | 0 | 0.0 | 3.5 | 0.00 | 0.00 | 0.00 | 80 | 1020.4 |
| 20260904091945 | 77 | 0 | 0.0 | 3.5 | 0.00 | 0.00 | 0.00 | 81 | 1020.3 |
| 20260904091445 | 77 | 0 | 0.0 | 5.2 | 0.00 | 0.00 | 0.00 | 81 | 1020.2 |
| 20260904090949 | 78 | 0 | 0.0 | 5.2 | 0.00 | 0.00 | 0.00 | 82 | 1020.2 |
| 20260904090445 | 78 | 0 | 0.0 | 6.1 | 0.00 | 0.00 | 0.00 | 81 | 1020.2 |
| 20260904085945 | 78 | 0 | 0.0 | 6.1 | 0.00 | 0.00 | 0.00 | 80 | 1020.1 |
| 20260904085445 | 79 | 0 | 0.0 | 2.6 | 0.00 | 0.00 | 0.00 | 77 | 1020.0 |
| 20260904084945 | 79 | 0 | 0.0 | 2.6 | 0.00 | 0.00 | 0.00 | 77 | 1020.0 |
| 20260904084446 | 78 | 0 | 0.0 | 5.2 | 0.00 | 0.00 | 0.00 | 78 | 1020.1 |
| 20260904083947 | 78 | 0 | 0.0 | 5.2 | 0.00 | 0.00 | 0.00 | 79 | 1019.9 |
| 20260904083445 | 78 | 0 | 0.0 | 3.5 | 0.00 | 0.00 | 0.00 | 80 | 1019.9 |
| 20260904082945 | 78 | 0 | 0.0 | 3.5 | 0.00 | 0.00 | 0.00 | 81 | 1019.8 |
| 20260904082445 | 78 | 0 | 0.0 | 3.5 | 0.00 | 0.00 | 0.00 | 81 | 1019.7 |
| 20260904081945 | 78 | 0 | 0.0 | 3.5 | 0.00 | 0.00 | 0.00 | 80 | 1019.8 |
| 20260904081445 | 78 | 0 | 0.0 | 1.7 | 0.00 | 0.00 | 0.00 | 80 | 1019.8 |
| 20260904080946 | 78 | 0 | 0.0 | 1.7 | 0.00 | 0.00 | 0.00 | 79 | 1019.8 |
| 20260904080445 | 78 | 0 | 0.0 | 2.6 | 0.00 | 0.00 | 0.00 | 79 | 1019.8 |
| 20260904075945 | 78 | 0 | 0.0 | 2.6 | 0.00 | 0.00 | 0.00 | 79 | 1019.9 |
| 20260904075445 | 78 | 0 | 0.0 | 3.5 | 0.00 | 0.00 | 0.00 | 79 | 1019.8 |
| 20260904074945 | 78 | 0 | 0.0 | 3.5 | 0.00 | 0.00 | 0.00 | 79 | 1019.8 |
| 20260904074445 | 79 | 0 | 0.0 | 5.2 | 0.00 | 0.00 | 0.00 | 78 | 1019.8 |
| 20260904073947 | 79 | 0 | 0.0 | 7.0 | 0.00 | 0.00 | 0.00 | 78 | 1019.9 |
| 20260904073445 | 79 | 280 | 2.6 | 7.0 | 0.00 | 0.00 | 0.00 | 78 | 1019.9 |
| 20260904072945 | 79 | 280 | 0.9 | 5.2 | 0.00 | 0.00 | 0.00 | 77 | 1019.9 |
| 20260904072406 | 79 | 280 | 0.9 | 5.2 | 0.00 | 0.00 | 0.00 | 77 | 1020.0 |
| 20260904071904 | 79 | 0 | 0.0 | 3.5 | 0.00 | 0.00 | 0.00 | 77 | 1020.1 |
| 20260904071137 | 80 | 280 | 0.9 | 7.8 | 0.00 | 0.00 | 0.00 | 77 | 1020.1 |
| 20260904070635 | 80 | 280 | 0.9 | 7.8 | 0.00 | 0.00 | 0.00 | 75 | 1020.1 |
| 20260904070304 | 81 | 280 | 1.7 | 7.8 | 0.00 | 0.00 | 0.00 | 74 | 1020.1 |
| 20260904070136 | 81 | 280 | 1.7 | 7.8 | 0.00 | 0.00 | 0.00 | 74 | 1020.1 |
| 20260904065637 | 81 | 0 | 0.0 | 5.2 | 0.00 | 0.00 | 0.00 | 73 | 1020.2 |
| 20260904065135 | 81 | 0 | 0.0 | 5.2 | 0.00 | 0.00 | 0.00 | 73 | 1020.3 |
| 20260904064635 | 81 | 0 | 0.0 | 3.5 | 0.00 | 0.00 | 0.00 | 73 | 1020.4 |
| 20260904064135 | 81 | 0 | 0.0 | 2.6 | 0.00 | 0.00 | 0.00 | 73 | 1020.5 |
| 20260904063635 | 81 | 0 | 0.0 | 1.7 | 0.00 | 0.00 | 0.00 | 74 | 1020.5 |
| 20260904063135 | 81 | 0 | 0.0 | 3.5 | 0.00 | 0.00 | 0.00 | 74 | 1020.6 |
| 20260904062635 | 81 | 0 | 0.0 | 3.5 | 0.00 | 0.00 | 0.00 | 74 | 1020.7 |
| 20260904062136 | 81 | 0 | 0.0 | 3.5 | 0.00 | 0.00 | 0.00 | 74 | 1020.8 |
| 20260904061635 | 81 | 0 | 0.0 | 3.5 | 0.00 | 0.00 | 0.00 | 74 | 1020.9 |
| 20260904061136 | 81 | 0 | 0.0 | 5.2 | 0.00 | 0.00 | 0.00 | 73 | 1021.0 |
| 20260904060635 | 81 | 0 | 0.0 | 5.2 | 0.00 | 0.00 | 0.00 | 73 | 1021.0 |
| 20260904060136 | 81 | 0 | 0.0 | 5.2 | 0.00 | 0.00 | 0.00 | 73 | 1021.2 |
| 20260904055635 | 81 | 0 | 0.0 | 5.2 | 0.00 | 0.00 | 0.00 | 73 | 1021.2 |
| 20260904055135 | 81 | 0 | 0.0 | 6.1 | 0.00 | 0.00 | 0.00 | 73 | 1021.3 |
| 20260904054635 | 81 | 0 | 0.0 | 6.1 | 0.00 | 0.00 | 0.00 | 73 | 1021.3 |
| 20260904054135 | 81 | 280 | 0.9 | 6.1 | 0.00 | 0.00 | 0.00 | 73 | 1021.4 |
| 20260904053635 | 81 | 0 | 0.0 | 5.2 | 0.00 | 0.00 | 0.00 | 73 | 1021.5 |
| 20260904053135 | 81 | 0 | 0.0 | 7.8 | 0.00 | 0.00 | 0.00 | 73 | 1021.5 |
| 20260904052635 | 81 | 0 | 0.0 | 7.8 | 0.00 | 0.00 | 0.00 | 73 | 1021.6 |
| 20260904052135 | 81 | 0 | 0.0 | 7.0 | 0.00 | 0.00 | 0.00 | 73 | 1021.6 |
| 20260904051635 | 81 | 0 | 0.0 | 7.0 | 0.00 | 0.00 | 0.00 | 73 | 1021.8 |
| 20260904051137 | 81 | 0 | 0.0 | 7.8 | 0.00 | 0.00 | 0.00 | 73 | 1021.8 |
| 20260904050639 | 81 | 284 | 0.9 | 7.8 | 0.00 | 0.00 | 0.00 | 73 | 1021.8 |
| 20260904050135 | 81 | 286 | 0.9 | 7.0 | 0.00 | 0.00 | 0.00 | 73 | 1021.9 |
| 20260904045635 | 81 | 0 | 0.0 | 4.3 | 0.00 | 0.00 | 0.00 | 74 | 1021.9 |
| 20260904045135 | 81 | 0 | 0.0 | 4.3 | 0.00 | 0.00 | 0.00 | 74 | 1021.9 |
| 20260904044635 | 81 | 0 | 0.0 | 4.3 | 0.00 | 0.00 | 0.00 | 74 | 1021.8 |
| 20260904044135 | 81 | 0 | 0.0 | 4.3 | 0.00 | 0.00 | 0.00 | 74 | 1021.8 |
| 20260904043635 | 81 | 0 | 0.0 | 4.3 | 0.00 | 0.00 | 0.00 | 74 | 1021.9 |
| 20260904043135 | 81 | 0 | 0.0 | 4.3 | 0.00 | 0.00 | 0.00 | 74 | 1021.9 |
| 20260904042635 | 81 | 0 | 0.0 | 3.5 | 0.00 | 0.00 | 0.00 | 73 | 1021.8 |
| 20260904042135 | 81 | 0 | 0.0 | 7.0 | 0.00 | 0.00 | 0.00 | 73 | 1021.8 |
| 20260904041635 | 81 | 290 | 0.9 | 7.0 | 0.00 | 0.00 | 0.00 | 73 | 1021.7 |
| 20260904041135 | 81 | 0 | 0.0 | 6.1 | 0.00 | 0.00 | 0.00 | 73 | 1021.7 |
| 20260904040635 | 82 | 0 | 0.0 | 6.1 | 0.00 | 0.00 | 0.00 | 72 | 1021.7 |
| 20260904040135 | 82 | 0 | 0.0 | 7.8 | 0.00 | 0.00 | 0.00 | 72 | 1021.6 |
| 20260904035635 | 82 | 292 | 0.9 | 7.8 | 0.00 | 0.00 | 0.00 | 72 | 1021.6 |
| 20260904035135 | 82 | 0 | 0.0 | 4.3 | 0.00 | 0.00 | 0.00 | 72 | 1021.6 |
| 20260904034635 | 82 | 296 | 0.9 | 7.0 | 0.00 | 0.00 | 0.00 | 71 | 1021.6 |
| 20260904034135 | 82 | 296 | 0.9 | 7.0 | 0.00 | 0.00 | 0.00 | 71 | 1021.6 |
| 20260904033635 | 82 | 0 | 0.0 | 4.3 | 0.00 | 0.00 | 0.00 | 71 | 1021.6 |
| 20260904033135 | 82 | 0 | 0.0 | 4.3 | 0.00 | 0.00 | 0.00 | 70 | 1021.6 |
| 20260904032636 | 83 | 0 | 0.0 | 7.0 | 0.00 | 0.00 | 0.00 | 70 | 1021.6 |
| 20260904032135 | 83 | 0 | 0.0 | 7.0 | 0.00 | 0.00 | 0.00 | 70 | 1021.5 |
| 20260904031635 | 83 | 302 | 0.9 | 4.3 | 0.00 | 0.00 | 0.00 | 69 | 1021.7 |
| 20260904031135 | 83 | 0 | 0.0 | 4.3 | 0.00 | 0.00 | 0.00 | 69 | 1021.7 |
| 20260904030635 | 83 | 0 | 0.0 | 4.3 | 0.00 | 0.00 | 0.00 | 69 | 1021.6 |
| 20260904030135 | 83 | 0 | 0.0 | 4.3 | 0.00 | 0.00 | 0.00 | 68 | 1021.7 |
| 20260904025636 | 83 | 0 | 0.0 | 2.6 | 0.00 | 0.00 | 0.00 | 68 | 1021.7 |
| 20260904025135 | 83 | 0 | 0.0 | 2.6 | 0.00 | 0.00 | 0.00 | 68 | 1021.8 |
| 20260904024636 | 83 | 0 | 0.0 | 6.1 | 0.00 | 0.00 | 0.00 | 67 | 1021.8 |
| 20260904024135 | 83 | 0 | 0.0 | 6.1 | 0.00 | 0.00 | 0.00 | 67 | 1021.8 |
| 20260904023635 | 83 | 0 | 0.0 | 2.6 | 0.00 | 0.00 | 0.00 | 66 | 1021.8 |
| 20260904023137 | 84 | 0 | 0.0 | 2.6 | 0.00 | 0.00 | 0.00 | 65 | 1021.8 |
| 20260904022635 | 84 | 0 | 0.0 | 4.3 | 0.00 | 0.00 | 0.00 | 64 | 1021.9 |
| 20260904022135 | 84 | 0 | 0.0 | 4.3 | 0.00 | 0.00 | 0.00 | 64 | 1021.9 |
| 20260904021635 | 84 | 0 | 0.0 | 2.6 | 0.00 | 0.00 | 0.00 | 64 | 1022.0 |
| 20260904021135 | 84 | 0 | 0.0 | 2.6 | 0.00 | 0.00 | 0.00 | 63 | 1021.9 |
| 20260904020635 | 84 | 0 | 0.0 | 2.6 | 0.00 | 0.00 | 0.00 | 62 | 1021.8 |
| 20260904020135 | 84 | 0 | 0.0 | 2.6 | 0.00 | 0.00 | 0.00 | 61 | 1021.7 |
| 20260904015635 | 84 | 0 | 0.0 | 0.0 | 0.00 | 0.00 | 0.00 | 61 | 1021.7 |
| 20260904015135 | 84 | 0 | 0.0 | 6.1 | 0.00 | 0.00 | 0.00 | 60 | 1021.8 |
| 20260904014635 | 84 | 0 | 0.0 | 6.1 | 0.00 | 0.00 | 0.00 | 59 | 1021.8 |
| 20260904014135 | 84 | 0 | 0.0 | 2.6 | 0.00 | 0.00 | 0.00 | 59 | 1021.8 |
| 20260904013635 | 84 | 0 | 0.0 | 2.6 | 0.00 | 0.00 | 0.00 | 58 | 1021.8 |
| 20260904013135 | 84 | 0 | 0.0 | 3.5 | 0.00 | 0.00 | 0.00 | 58 | 1021.7 |
| 20260904012635 | 84 | 0 | 0.0 | 3.5 | 0.00 | 0.00 | 0.00 | 58 | 1021.6 |
| 20260904012102 | 84 | 0 | 0.0 | 3.5 | 0.00 | 0.00 | 0.00 | 59 | 1021.6 |
| 20260904011602 | 84 | 0 | 0.0 | 3.5 | 0.00 | 0.00 | 0.00 | 61 | 1021.5 |
| 20260904011105 | 84 | 0 | 0.0 | 1.7 | 0.00 | 0.00 | 0.00 | 61 | 1021.5 |
| 20260904010602 | 84 | 0 | 0.0 | 2.6 | 0.00 | 0.00 | 0.00 | 63 | 1021.4 |
| 20260904005602 | 84 | 0 | 0.0 | 0.0 | 0.00 | 0.00 | 0.00 | 62 | 1021.4 |
| 20260904005102 | 84 | 0 | 0.0 | 2.6 | 0.00 | 0.00 | 0.00 | 63 | 1021.4 |
| 20260904004602 | 84 | 0 | 0.0 | 2.6 | 0.00 | 0.00 | 0.00 | 63 | 1021.4 |
| 20260904004102 | 84 | 0 | 0.0 | 2.6 | 0.00 | 0.00 | 0.00 | 63 | 1021.2 |
| 20260904003603 | 84 | 0 | 0.0 | 3.5 | 0.00 | 0.00 | 0.00 | 63 | 1021.1 |
| 20260904003102 | 84 | 0 | 0.0 | 3.5 | 0.00 | 0.00 | 0.00 | 63 | 1021.0 |
| 20260904002602 | 84 | 0 | 0.0 | 3.5 | 0.00 | 0.00 | 0.00 | 62 | 1020.9 |
| 20260904002102 | 84 | 0 | 0.0 | 1.7 | 0.00 | 0.00 | 0.00 | 63 | 1020.8 |
| 20260904001602 | 84 | 0 | 0.0 | 0.9 | 0.00 | 0.00 | 0.00 | 62 | 1020.7 |
| 20260904001104 | 84 | 0 | 0.0 | 0.9 | 0.00 | 0.00 | 0.00 | 63 | 1020.6 |
| 20260904000602 | 84 | 0 | 0.0 | 3.5 | 0.00 | 0.00 | 0.00 | 63 | 1020.6 |
| 20260903235602 | 85 | 0 | 0.0 | 2.6 | 0.00 | 0.00 | 0.00 | 63 | 1020.7 |
| 20260903235102 | 85 | 0 | 0.0 | 2.6 | 0.00 | 0.00 | 0.00 | 63 | 1020.5 |
| 20260903234602 | 85 | 0 | 0.0 | 0.9 | 0.00 | 0.00 | 0.00 | 63 | 1020.5 |
| 20260903234102 | 85 | 0 | 0.0 | 6.1 | 0.00 | 0.00 | 0.00 | 62 | 1020.3 |
| 20260903233602 | 85 | 0 | 0.0 | 6.1 | 0.00 | 0.00 | 0.00 | 62 | 1020.3 |
| 20260903233103 | 86 | 0 | 0.0 | 4.3 | 0.00 | 0.00 | 0.00 | 62 | 1020.4 |
| 20260903232602 | 86 | 0 | 0.0 | 3.5 | 0.00 | 0.00 | 0.00 | 62 | 1020.5 |
| 20260903232102 | 86 | 0 | 0.0 | 4.3 | 0.00 | 0.00 | 0.00 | 62 | 1020.4 |
| 20260903231602 | 86 | 0 | 0.0 | 4.3 | 0.00 | 0.00 | 0.00 | 62 | 1020.4 |
| 20260903231102 | 86 | 0 | 0.0 | 4.3 | 0.00 | 0.00 | 0.00 | 61 | 1020.4 |
| 20260903230604 | 87 | 0 | 0.0 | 4.3 | 0.00 | 0.00 | 0.00 | 61 | 1020.4 |
| 20260903225604 | 87 | 0 | 0.0 | 1.7 | 0.00 | 0.00 | 0.00 | 59 | 1020.2 |
| 20260903225102 | 87 | 0 | 0.0 | 0.0 | 0.00 | 0.00 | 0.00 | 58 | 1020.2 |
| 20260903224602 | 88 | 0 | 0.0 | 1.7 | 0.00 | 0.00 | 0.00 | 59 | 1020.3 |
| 20260903224102 | 88 | 0 | 0.0 | 1.7 | 0.00 | 0.00 | 0.00 | 58 | 1020.3 |
| 20260903223602 | 88 | 0 | 0.0 | 2.6 | 0.00 | 0.00 | 0.00 | 57 | 1020.3 |
| 20260903223104 | 88 | 0 | 0.0 | 2.6 | 0.00 | 0.00 | 0.00 | 57 | 1020.2 |
| 20260903222602 | 88 | 0 | 0.0 | 2.6 | 0.00 | 0.00 | 0.00 | 56 | 1020.2 |
| 20260903222103 | 88 | 0 | 0.0 | 3.5 | 0.00 | 0.00 | 0.00 | 56 | 1020.2 |
| 20260903221602 | 88 | 0 | 0.0 | 3.5 | 0.00 | 0.00 | 0.00 | 57 | 1020.3 |
| 20260903221103 | 89 | 302 | 0.9 | 3.5 | 0.00 | 0.00 | 0.00 | 56 | 1020.3 |
| 20260903220602 | 89 | 0 | 0.0 | 0.9 | 0.00 | 0.00 | 0.00 | 56 | 1020.3 |
| 20260903215603 | 89 | 0 | 0.0 | 3.5 | 0.00 | 0.00 | 0.00 | 55 | 1020.3 |
| 20260903215102 | 89 | 0 | 0.0 | 2.6 | 0.00 | 0.00 | 0.00 | 57 | 1020.4 |
| 20260903214602 | 90 | 0 | 0.0 | 3.5 | 0.00 | 0.00 | 0.00 | 55 | 1020.4 |
| 20260903214102 | 90 | 0 | 0.0 | 6.1 | 0.00 | 0.00 | 0.00 | 56 | 1020.3 |
| 20260903213602 | 90 | 0 | 0.0 | 6.1 | 0.00 | 0.00 | 0.00 | 56 | 1020.4 |
| 20260903213102 | 90 | 0 | 0.0 | 4.3 | 0.00 | 0.00 | 0.00 | 54 | 1020.3 |
| 20260903212605 | 91 | 0 | 0.0 | 3.5 | 0.00 | 0.00 | 0.00 | 56 | 1020.4 |
| 20260903212104 | 91 | 0 | 0.0 | 3.5 | 0.00 | 0.00 | 0.00 | 55 | 1020.5 |
| 20260903211602 | 91 | 302 | 0.9 | 4.3 | 0.00 | 0.00 | 0.00 | 54 | 1020.4 |
| 20260903211102 | 92 | 302 | 0.9 | 4.3 | 0.00 | 0.00 | 0.00 | 54 | 1020.5 |
| 20260903210602 | 92 | 0 | 0.0 | 4.3 | 0.00 | 0.00 | 0.00 | 55 | 1020.6 |
| 20260903205602 | 92 | 0 | 0.0 | 6.1 | 0.00 | 0.00 | 0.00 | 56 | 1020.6 |
| 20260903205102 | 91 | 0 | 0.0 | 4.3 | 0.00 | 0.00 | 0.00 | 53 | 1020.6 |
| 20260903204602 | 91 | 302 | 0.9 | 7.0 | 0.00 | 0.00 | 0.00 | 54 | 1020.7 |
| 20260903204102 | 91 | 0 | 0.0 | 7.0 | 0.00 | 0.00 | 0.00 | 55 | 1020.6 |
| 20260903203603 | 92 | 302 | 1.7 | 6.1 | 0.00 | 0.00 | 0.00 | 53 | 1020.8 |
| 20260903203103 | 92 | 0 | 0.0 | 7.8 | 0.00 | 0.00 | 0.00 | 53 | 1020.8 |
| 20260903202602 | 92 | 302 | 1.7 | 7.8 | 0.00 | 0.00 | 0.00 | 54 | 1020.8 |
| 20260903202102 | 92 | 0 | 0.0 | 7.0 | 0.00 | 0.00 | 0.00 | 54 | 1020.9 |
| 20260903201602 | 92 | 307 | 0.9 | 7.0 | 0.00 | 0.00 | 0.00 | 54 | 1021.0 |
| 20260903201104 | 92 | 0 | 0.0 | 7.0 | 0.00 | 0.00 | 0.00 | 55 | 1021.0 |
| 20260903200602 | 93 | 309 | 1.7 | 7.0 | 0.00 | 0.00 | 0.00 | 52 | 1021.1 |
| 20260903195602 | 93 | 0 | 0.0 | 4.3 | 0.00 | 0.00 | 0.00 | 54 | 1021.2 |
| 20260903195102 | 93 | 0 | 0.0 | 5.2 | 0.00 | 0.00 | 0.00 | 54 | 1021.2 |
| 20260903194602 | 93 | 316 | 0.9 | 7.0 | 0.00 | 0.00 | 0.00 | 53 | 1021.1 |
| 20260903194102 | 93 | 317 | 0.9 | 7.0 | 0.00 | 0.00 | 0.00 | 54 | 1021.2 |
| 20260903193602 | 93 | 325 | 0.9 | 7.0 | 0.00 | 0.00 | 0.00 | 53 | 1021.2 |
| 20260903193104 | 93 | 0 | 0.0 | 4.3 | 0.00 | 0.00 | 0.00 | 53 | 1021.4 |
| 20260903192602 | 92 | 327 | 0.9 | 4.3 | 0.00 | 0.00 | 0.00 | 52 | 1021.4 |
| 20260903192104 | 92 | 0 | 0.0 | 4.3 | 0.00 | 0.00 | 0.00 | 52 | 1021.4 |
| 20260903191602 | 92 | 327 | 0.9 | 4.3 | 0.00 | 0.00 | 0.00 | 52 | 1021.5 |
| 20260903190745 | 92 | 328 | 3.5 | 8.7 | 0.00 | 0.00 | 0.00 | 54 | 1021.5 |
| 20260903190245 | 91 | 328 | 2.6 | 7.0 | 0.00 | 0.00 | 0.00 | 55 | 1021.6 |
| 20260903185745 | 90 | 328 | 1.7 | 5.2 | 0.00 | 0.00 | 0.00 | 55 | 1021.6 |
| 20260903185245 | 92 | 328 | 0.9 | 5.2 | 0.00 | 0.00 | 0.00 | 53 | 1021.7 |
| 20260903184745 | 93 | 328 | 0.9 | 5.2 | 0.00 | 0.00 | 0.00 | 51 | 1021.7 |
| 20260903184245 | 93 | 328 | 1.7 | 5.2 | 0.00 | 0.00 | 0.00 | 53 | 1021.7 |
| 20260903183746 | 93 | 328 | 1.7 | 7.8 | 0.00 | 0.00 | 0.00 | 53 | 1021.9 |
| 20260903183245 | 93 | 328 | 3.5 | 7.8 | 0.00 | 0.00 | 0.00 | 53 | 1021.9 |
| 20260903182745 | 92 | 328 | 0.9 | 7.0 | 0.00 | 0.00 | 0.00 | 55 | 1022.0 |
| 20260903182245 | 92 | 328 | 0.9 | 7.0 | 0.00 | 0.00 | 0.00 | 56 | 1022.0 |
| 20260903181713 | 92 | 328 | 0.9 | 5.2 | 0.00 | 0.00 | 0.00 | 54 | 1022.0 |
| 20260903181156 | 91 | 0 | 0.0 | 2.6 | 0.00 | 0.00 | 0.00 | 57 | 1022.1 |
| 20260903180656 | 91 | 0 | 0.0 | 4.3 | 0.00 | 0.00 | 0.00 | 55 | 1022.2 |
| 20260903180157 | 91 | 328 | 1.7 | 5.2 | 0.00 | 0.00 | 0.00 | 55 | 1022.2 |
| 20260903175656 | 91 | 328 | 1.7 | 5.2 | 0.00 | 0.00 | 0.00 | 57 | 1022.2 |
| 20260903175157 | 90 | 328 | 0.9 | 4.3 | 0.00 | 0.00 | 0.00 | 59 | 1022.3 |
| 20260903174656 | 90 | 0 | 0.0 | 1.7 | 0.00 | 0.00 | 0.00 | 59 | 1022.3 |
| 20260903174158 | 90 | 0 | 0.0 | 1.7 | 0.00 | 0.00 | 0.00 | 60 | 1022.4 |
| 20260903173656 | 89 | 0 | 0.0 | 1.7 | 0.00 | 0.00 | 0.00 | 61 | 1022.5 |
| 20260903173155 | 88 | 0 | 0.0 | 1.7 | 0.00 | 0.00 | 0.00 | 60 | 1022.4 |
| 20260903172656 | 89 | 0 | 0.0 | 0.9 | 0.00 | 0.00 | 0.00 | 61 | 1022.5 |
| 20260903172156 | 89 | 0 | 0.0 | 1.7 | 0.00 | 0.00 | 0.00 | 61 | 1022.6 |
| 20260903171656 | 89 | 0 | 0.0 | 1.7 | 0.00 | 0.00 | 0.00 | 60 | 1022.6 |